This is the latest recevied weather packets stored in our database for station/object K2CAT. If no packets are shown the sender has not sent any weather packets the latest 10 day(s).
| Time | Temp. | Humidity | Pressure | Rain* | Wind** | Luminosity | Snow |
|---|---|---|---|---|---|---|---|
| 1777776714 | 7.22° C | 65% | 1012.5 hPa | 0 mm | - | 0 W/m² | - |
| 1777776410 | 7.78° C | 61% | 1012.5 hPa | 0 mm | - | 0 W/m² | - |
| 1777776108 | 7.78° C | 60% | 1012.5 hPa | 0 mm | - | 0 W/m² | - |
| 1777775805 | 8.33° C | 57% | 1012.5 hPa | 0 mm | - | 0 W/m² | - |
| 1777775501 | 8.33° C | 56% | 1012.7 hPa | 0 mm | - | 0 W/m² | - |
| 1777775197 | 8.33° C | 53% | 1012.7 hPa | 0 mm | - | 0 W/m² | - |
| 1777774897 | 7.78° C | 55% | 1012.7 hPa | 0 mm | - | 0 W/m² | - |
| 1777774594 | 7.78° C | 60% | 1012.6 hPa | 0 mm | - | 0 W/m² | - |
| 1777774291 | 7.78° C | 62% | 1012.5 hPa | 0 mm | - | 0 W/m² | - |
| 1777773988 | 7.78° C | 65% | 1012.5 hPa | 0 mm | - | 0 W/m² | - |
| 1777773686 | 7.78° C | 63% | 1012.6 hPa | 0 mm | - | 0 W/m² | - |
| 1777773382 | 8.33° C | 61% | 1012.5 hPa | 0 mm | - | 0 W/m² | - |
| 1777773079 | 8.33° C | 62% | 1012.5 hPa | 0 mm | - | 0 W/m² | - |
| 1777772775 | 8.33° C | 61% | 1012.4 hPa | 0 mm | - | 0 W/m² | - |
| 1777772473 | 8.33° C | 59% | 1012.5 hPa | 0 mm | - | 0 W/m² | - |
| 1777772170 | 8.89° C | 58% | 1012.4 hPa | 0 mm | - | 0 W/m² | - |
| 1777771868 | 8.89° C | 58% | 1012.4 hPa | 0 mm | - | 0 W/m² | - |
| 1777771565 | 8.89° C | 58% | 1012.3 hPa | 0 mm | - | 0 W/m² | - |
| 1777771261 | 9.44° C | 58% | 1012.5 hPa | 0 mm | - | 0 W/m² | - |
| 1777770958 | 9.44° C | 50% | 1012.2 hPa | 0 mm | - | 0 W/m² | - |
| 1777770655 | 10° C | 51% | 1012.1 hPa | 0 mm | - | 0 W/m² | - |
| 1777770351 | 10° C | 46% | 1011.9 hPa | 0 mm | - | 0 W/m² | - |
| 1777770049 | 10° C | 47% | 1012.1 hPa | 0 mm | - | 0 W/m² | - |
| 1777769746 | 9.44° C | 51% | 1012.1 hPa | 0 mm | - | 0 W/m² | - |
| 1777769443 | 9.44° C | 59% | 1012.2 hPa | 0 mm | - | 0 W/m² | - |
* Rain latest hour (hover to see other rain measurements)
** Current wind speed in m/s (hover to see current wind gust speed)